TimeCST,TemperatureF,Dew PointF,Humidity,Sea Level PressureIn,VisibilityMPH,Wind Direction,Wind SpeedMPH,Gust SpeedMPH,PrecipitationIn,Events,Conditions,WindDirDegrees,DateUTC
12:53 AM,19.0,16.0,88,30.23,4.0,NE,5.8,-,N/A,,Overcast,50,2013-02-22 06:53:00
1:53 AM,19.9,16.0,85,30.21,5.0,NE,3.5,-,N/A,,Overcast,50,2013-02-22 07:53:00
2:53 AM,19.9,16.0,85,30.17,6.0,NNE,5.8,-,N/A,,Overcast,20,2013-02-22 08:53:00
3:53 AM,19.9,16.0,85,30.13,4.0,NNE,6.9,-,N/A,,Overcast,30,2013-02-22 09:53:00
4:53 AM,19.0,16.0,88,30.11,6.0,NNE,8.1,-,N/A,,Overcast,30,2013-02-22 10:53:00
5:26 AM,19.4,15.8,86,30.02,10.0,NE,8.1,-,N/A,,Overcast,40,2013-02-22 11:26:00
5:53 AM,19.0,15.1,85,30.10,10.0,NE,5.8,-,N/A,,Overcast,40,2013-02-22 11:53:00
6:53 AM,19.0,15.1,85,30.07,10.0,NNE,6.9,-,N/A,,Overcast,30,2013-02-22 12:53:00
7:53 AM,19.9,16.0,85,30.06,10.0,NE,5.8,-,N/A,,Overcast,50,2013-02-22 13:53:00
8:53 AM,21.0,17.1,85,30.05,10.0,NNE,8.1,-,N/A,,Overcast,30,2013-02-22 14:53:00
9:39 AM,21.2,17.6,86,29.95,1.8,NNE,6.9,-,0.00,Snow,Light Snow,30,2013-02-22 15:39:00
9:46 AM,21.2,17.6,86,29.95,0.8,NNE,6.9,-,0.00,Snow,Light Snow,30,2013-02-22 15:46:00
9:53 AM,21.9,18.0,85,30.03,1.0,NE,5.8,-,0.00,Snow,Light Snow,40,2013-02-22 15:53:00
10:06 AM,21.2,17.6,86,29.94,2.5,NNE,5.8,-,0.00,Snow,Light Snow,30,2013-02-22 16:06:00
10:15 AM,23.0,17.6,80,29.94,3.0,NNE,6.9,-,0.00,Snow,Light Snow,30,2013-02-22 16:15:00
10:36 AM,24.8,19.4,80,29.93,9.0,NNE,6.9,-,0.00,,Overcast,30,2013-02-22 16:36:00
10:53 AM,25.0,19.9,81,30.01,10.0,NE,5.8,-,0.00,,Overcast,40,2013-02-22 16:53:00
11:53 AM,27.0,21.0,78,29.99,10.0,NE,6.9,-,N/A,,Overcast,40,2013-02-22 17:53:00
12:53 PM,28.0,21.9,78,29.97,10.0,NNE,6.9,-,N/A,,Overcast,30,2013-02-22 18:53:00
1:53 PM,28.9,21.9,75,29.95,10.0,NNE,3.5,-,N/A,,Overcast,20,2013-02-22 19:53:00
2:53 PM,30.0,19.9,66,29.93,10.0,East,9.2,-,N/A,,Overcast,90,2013-02-22 20:53:00
3:53 PM,28.9,21.9,75,29.92,5.0,NE,6.9,-,0.00,Snow,Light Snow,40,2013-02-22 21:53:00
4:53 PM,28.0,21.0,75,29.92,10.0,NNE,8.1,-,0.00,,Overcast,20,2013-02-22 22:53:00
5:15 PM,28.4,21.2,74,29.85,10.0,NNE,6.9,-,N/A,,Overcast,20,2013-02-22 23:15:00
5:53 PM,28.0,21.0,75,29.94,10.0,NE,5.8,-,N/A,,Overcast,40,2013-02-22 23:53:00
6:23 PM,26.6,21.2,80,29.86,2.5,NNE,5.8,-,0.00,Snow,Light Snow,30,2013-02-23 00:23:00
6:40 PM,26.6,21.2,80,29.86,3.0,North,4.6,-,0.00,Snow,Light Snow,10,2013-02-23 00:40:00
6:53 PM,27.0,21.9,81,29.93,3.0,NNE,5.8,-,0.00,Snow,Light Snow,20,2013-02-23 00:53:00
7:01 PM,26.6,21.2,80,29.86,2.0,North,4.6,-,0.00,Snow,Light Snow,10,2013-02-23 01:01:00
7:09 PM,26.6,21.2,80,29.86,1.8,NNE,4.6,-,0.00,Snow,Light Snow,20,2013-02-23 01:09:00
7:20 PM,26.6,21.2,80,29.86,2.0,North,4.6,-,0.01,Snow,Light Snow,10,2013-02-23 01:20:00
7:31 PM,26.6,21.2,80,29.86,3.0,NNE,4.6,-,0.01,Snow,Light Snow,20,2013-02-23 01:31:00
7:53 PM,26.1,21.0,81,29.94,2.5,North,3.5,-,0.01,Snow,Light Snow,360,2013-02-23 01:53:00
8:09 PM,26.6,21.2,80,29.86,5.0,Calm,Calm,-,0.00,Snow,Light Snow,0,2013-02-23 02:09:00
8:37 PM,26.6,21.2,80,29.85,9.0,North,4.6,-,0.00,,Overcast,10,2013-02-23 02:37:00
8:53 PM,26.1,19.9,78,29.92,10.0,NNE,4.6,-,0.00,,Overcast,20,2013-02-23 02:53:00
9:53 PM,25.0,19.9,81,29.91,4.0,North,3.5,-,0.00,Snow,Light Snow,360,2013-02-23 03:53:00
10:53 PM,23.0,19.0,85,29.91,7.0,North,3.5,-,0.00,Snow,Light Snow,360,2013-02-23 04:53:00
11:53 PM,23.0,19.0,85,29.89,6.0,Calm,Calm,-,0.00,Snow,Light Snow,0,2013-02-23 05:53:00